Latest Coastal Weather Observations for Cape Wessel

IDD60701

Issued at 1:41 am CST Wednesday 2 September 2015 (issued every 10 minutes, with the page automatically refreshed every 10 minutes)

About coastal observations | Map of coastal stations | Coastal observations for NT | Marine services | Other Formats
Station Details ID: 200786 Name: CAPE WESSEL Lat: -11.00 Lon: 136.76 Height: 18.0 m
Data from the previous 72 hours. | See also: Recent months at Cape Wessel
Date/Time
CST
Temp

°C
Wind Pressure Rain
since 9am
mm
Weather Cloud Vis
km
Sea
Height
m
Swell
Dir
 
Speed
knots
Gust
knots
hPa Trend Height
m
Period
s
Dir
02/01:30am 23.7 E 7 8 1013.6 - 0.0 - - - - - - -
02/01:00am 23.6 E 6 7 1013.7 - 0.0 - - - - - - -
02/12:30am 23.1 E 5 6 1013.9 - 0.0 - - - - - - -
02/12:00am 23.3 E 5 5 1014.0 - 0.0 - - - - - - -
 
Date/Time
CST
Temp

°C
Wind Pressure Rain
since 9am
mm
Weather Cloud Vis
km
Sea
Height
m
Swell
Dir
 
Speed
knots
Gust
knots
hPa Trend Height
m
Period
s
Dir
01/11:30pm 23.6 E 5 6 1014.3 - 0.0 - - - - - - -
01/11:00pm 23.7 E 5 6 1014.3 - 0.0 - - - - - - -
01/10:30pm 23.9 E 6 6 1014.3 - 0.0 - - - - - - -
01/10:00pm 24.2 E 7 8 1014.3 - 0.0 - - - - - - -
01/09:30pm 24.5 E 7 8 1014.2 - 0.0 - - - - - - -
01/09:00pm 24.7 E 9 11 1013.9 - 0.0 - - - - - - -
01/08:30pm 24.8 E 9 11 1013.8 - 0.0 - - - - - - -
01/08:00pm 24.9 E 8 10 1013.4 - 0.0 - - - - - - -
01/07:30pm 25.2 E 9 10 1013.1 - 0.0 - - - - - - -
01/07:00pm 25.1 ENE 8 10 1012.8 - 0.0 - - - - - - -
01/06:30pm 25.2 ENE 7 9 1012.4 - 0.0 - - - - - - -
01/06:00pm 26.0 ENE 8 10 1012.1 - 0.0 - - - - - - -
01/05:30pm 26.9 ENE 7 9 1012.0 - 0.0 - - - - - - -
01/05:00pm 27.7 ENE 8 10 1011.8 - 0.0 - - - - - - -
01/04:30pm 28.0 ENE 9 11 1011.6 - 0.0 - - - - - - -
01/04:00pm 28.9 ENE 9 11 1011.8 - 0.0 - - - - - - -
01/03:30pm 28.9 ENE 10 12 1011.9 - 0.0 - - - - - - -
01/03:00pm 29.0 ENE 10 12 1012.0 - 0.0 - - - - - - -
01/02:30pm 29.7 ENE 10 12 1012.3 - 0.0 - - - - - - -
01/02:00pm 29.9 E 9 12 1012.7 - 0.0 - - - - - - -
01/01:30pm 29.5 E 9 11 1013.1 - 0.0 - - - - - - -
01/01:00pm 29.6 E 10 12 1013.5 - 0.0 - - - - - - -
01/12:30pm 28.9 E 10 12 1013.9 - 0.0 - - - - - - -
01/12:00pm 29.0 E 10 11 1014.1 - 0.0 - - - - - - -
01/11:30am 29.2 E 10 12 1014.6 - 0.0 - - - - - - -
01/11:00am 29.5 E 9 13 1014.9 - 0.0 - - - - - - -
01/10:30am 28.7 E 10 13 1015.3 - 0.0 - - - - - - -
01/10:00am 28.3 E 10 13 1015.4 - 0.0 - - - - - - -
01/09:30am 27.7 E 9 11 1015.2 - 0.0 - - - - - - -
01/09:00am 27.1 ESE 9 11 1015.0 - 0.2 - - - - - - -
01/08:30am 26.4 ESE 8 10 1015.0 - 0.2 - - - - - - -
01/08:00am 25.5 ESE 7 9 1014.8 - 0.2 - - - - - - -
01/07:30am 24.4 E 7 9 1014.5 - 0.2 - - - - - - -
01/07:00am 23.9 E 6 7 1014.3 - 0.2 - - - - - - -
01/06:30am 23.4 E 6 7 1013.7 - 0.2 - - - - - - -
01/06:00am 23.4 E 7 8 1013.3 - 0.2 - - - - - - -
01/05:30am 23.5 E 7 8 1013.1 - 0.2 - - - - - - -
01/05:00am 23.4 E 8 9 1012.9 - 0.2 - - - - - - -
01/04:30am 23.5 E 8 9 1012.8 - 0.2 - - - - - - -
01/04:00am 23.4 E 8 10 1012.9 - 0.2 - - - - - - -
01/03:30am 23.4 E 8 9 1013.0 - 0.2 - - - - - - -
01/03:00am 23.4 E 8 10 1013.0 - 0.0 - - - - - - -
01/02:30am 23.5 E 9 10 1013.2 - 0.0 - - - - - - -
01/02:00am 23.5 ESE 8 10 1013.2 - 0.0 - - - - - - -
01/01:30am 23.6 ESE 8 9 1013.5 - 0.0 - - - - - - -
01/01:00am 23.7 ESE 8 9 1013.8 - 0.0 - - - - - - -
01/12:30am 23.8 ESE 8 9 1014.0 - 0.0 - - - - - - -
01/12:00am 23.8 ESE 8 9 1014.2 - 0.0 - - - - - - -
 
Date/Time
CST
Temp

°C
Wind Pressure Rain
since 9am
mm
Weather Cloud Vis
km
Sea
Height
m
Swell
Dir
 
Speed
knots
Gust
knots
hPa Trend Height
m
Period
s
Dir
31/11:30pm 24.0 ESE 8 9 1014.5 - 0.0 - - - - - - -
31/11:00pm 24.0 ESE 8 9 1014.6 - 0.0 - - - - - - -
31/10:30pm 24.0 ESE 8 9 1014.5 - 0.0 - - - - - - -
31/10:00pm 23.9 ESE 7 8 1014.5 - 0.0 - - - - - - -
31/09:30pm 24.1 ESE 7 8 1014.5 - 0.0 - - - - - - -
31/09:00pm 24.3 ESE 7 9 1014.4 - 0.0 - - - - - - -
31/08:30pm 24.4 ESE 8 9 1014.3 - 0.0 - - - - - - -
31/08:00pm 24.5 ESE 9 10 1014.0 - 0.0 - - - - - - -
31/07:30pm 24.7 ESE 9 11 1013.7 - 0.0 - - - - - - -
31/07:00pm 24.8 ESE 9 11 1013.4 - 0.0 - - - - - - -
31/06:30pm 25.1 ESE 10 11 1013.2 - 0.0 - - - - - - -
31/06:00pm 25.8 ESE 9 11 1013.0 - 0.0 - - - - - - -
31/05:30pm 26.6 ESE 9 11 1012.9 - 0.0 - - - - - - -
31/05:00pm 27.4 ESE 9 11 1012.8 - 0.0 - - - - - - -
31/04:30pm 27.5 ESE 9 11 1012.8 - 0.0 - - - - - - -
31/04:00pm 28.9 ESE 9 12 1012.8 - 0.0 - - - - - - -
31/03:30pm 29.0 ESE 10 12 1013.0 - 0.0 - - - - - - -
31/03:00pm 28.7 ESE 9 11 1013.0 - 0.0 - - - - - - -
31/02:30pm 30.1 ESE 10 12 1013.5 - 0.0 - - - - - - -
31/02:00pm 29.1 ESE 10 11 1013.7 - 0.0 - - - - - - -
31/01:30pm 29.1 ESE 10 12 1013.9 - 0.0 - - - - - - -
31/01:00pm 29.7 ESE 9 12 1014.2 - 0.0 - - - - - - -
31/12:30pm 29.5 ESE 9 11 1014.5 - 0.0 - - - - - - -
31/12:00pm 29.9 E 10 13 1014.7 - 0.0 - - - - - - -
31/11:30am 29.4 E 10 11 1015.1 - 0.0 - - - - - - -
31/11:00am 29.4 E 9 11 1015.4 - 0.0 - - - - - - -
31/10:30am 28.5 E 10 11 1015.6 - 0.0 - - - - - - -
31/10:00am 28.7 E 9 11 1015.8 - 0.0 - - - - - - -
31/09:30am 28.1 E 9 11 1015.9 - 0.0 - - - - - - -
31/09:00am 27.3 ESE 8 9 1015.7 - 0.0 - - - - - - -
31/08:30am 26.5 SSE 8 9 1015.5 - 0.0 - - - - - - -
31/08:00am 25.7 SSE 7 9 1015.2 - 0.0 - - - - - - -
31/07:30am 24.7 SSE 7 8 1014.9 - 0.0 - - - - - - -
31/07:00am 23.4 SSE 7 9 1014.5 - 0.0 - - - - - - -
31/06:30am 22.7 SSE 8 9 1014.2 - 0.0 - - - - - - -
31/06:00am 22.5 SE 8 9 1013.7 - 0.0 - - - - - - -
31/05:30am 22.3 SE 7 8 1013.6 - 0.0 - - - - - - -
31/05:00am 22.7 SE 7 8 1013.6 - 0.0 - - - - - - -
31/04:30am 22.8 SE 7 8 1013.7 - 0.0 - - - - - - -
31/04:00am 22.8 SE 7 8 1013.6 - 0.0 - - - - - - -
31/03:30am 23.1 ESE 7 8 1013.8 - 0.0 - - - - - - -
31/03:00am 23.2 ESE 7 8 1013.8 - 0.0 - - - - - - -
31/02:30am 23.3 ESE 6 8 1014.1 - 0.0 - - - - - - -
31/02:00am 23.4 ESE 7 8 1014.4 - 0.0 - - - - - - -
31/01:30am 23.6 ESE 7 8 1014.6 - 0.0 - - - - - - -
31/01:00am 23.7 ESE 7 8 1014.7 - 0.0 - - - - - - -
31/12:30am 23.9 ESE 9 10 1015.1 - 0.0 - - - - - - -
31/12:00am 24.2 ESE 10 12 1015.3 - 0.0 - - - - - - -
 
Date/Time
CST
Temp

°C
Wind Pressure Rain
since 9am
mm
Weather Cloud Vis
km
Sea
Height
m
Swell
Dir
 
Speed
knots
Gust
knots
hPa Trend Height
m
Period
s
Dir
30/11:30pm 24.3 ESE 11 13 1015.5 - 0.0 - - - - - - -
30/11:00pm 24.3 ESE 12 14 1015.6 - 0.0 - - - - - - -
30/10:30pm 24.4 ESE 12 14 1015.6 - 0.0 - - - - - - -
30/10:00pm 24.5 ESE 12 14 1015.4 - 0.0 - - - - - - -
30/09:30pm 24.6 ESE 13 15 1015.2 - 0.0 - - - - - - -
30/09:00pm 24.6 SE 14 18 1014.7 - 0.0 - - - - - - -
30/08:30pm 24.8 SE 15 18 1014.7 - 0.0 - - - - - - -
30/08:00pm 24.8 SE 15 17 1014.3 - 0.0 - - - - - - -
30/07:30pm 25.1 SE 15 18 1014.2 - 0.0 - - - - - - -
30/07:00pm 25.2 SE 14 16 1013.9 - 0.0 - - - - - - -
30/06:30pm 25.3 SE 13 17 1013.7 - 0.0 - - - - - - -
30/06:00pm 25.6 SE 13 15 1013.5 - 0.0 - - - - - - -
30/05:30pm 26.5 SE 12 14 1013.4 - 0.0 - - - - - - -
30/05:00pm 27.3 ESE 11 14 1013.4 - 0.0 - - - - - - -
30/04:30pm 27.9 ESE 12 14 1013.5 - 0.0 - - - - - - -
30/04:00pm 28.2 ESE 11 14 1013.3 - 0.0 - - - - - - -
30/03:30pm 28.6 ESE 11 13 1013.4 - 0.0 - - - - - - -
30/03:00pm 29.1 ESE 11 13 1013.5 - 0.0 - - - - - - -
30/02:30pm 29.3 ESE 11 13 1013.9 - 0.0 - - - - - - -
30/02:00pm 30.0 ESE 11 13 1014.1 - 0.0 - - - - - - -
30/01:30pm 29.9 ESE 10 13 1014.3 - 0.0 - - - - - - -
30/01:00pm 29.8 ESE 11 14 1014.8 - 0.0 - - - - - - -
30/12:30pm 29.7 ESE 11 13 1015.3 - 0.0 - - - - - - -
30/12:00pm 29.8 ESE 11 13 1015.5 - 0.0 - - - - - - -
30/11:30am 29.0 E 10 12 1016.0 - 0.0 - - - - - - -
30/11:00am 28.9 ENE 10 12 1016.2 - 0.0 - - - - - - -
30/10:30am 28.3 ENE 10 12 1016.3 - 0.0 - - - - - - -
30/10:00am 28.4 E 9 12 1016.3 - 0.0 - - - - - - -
30/09:30am 28.2 E 9 11 1016.3 - 0.0 - - - - - - -
30/09:00am 27.4 E 9 11 1016.2 - 0.0 - - - - - - -
30/08:30am 26.7 E 8 10 1016.1 - 0.0 - - - - - - -
30/08:00am 26.1 ESE 9 11 1016.0 - 0.0 - - - - - - -
30/07:30am 25.2 E 10 13 1015.7 - 0.0 - - - - - - -
30/07:00am 24.3 ESE 11 13 1015.3 - 0.0 - - - - - - -
30/06:30am 23.9 ESE 11 13 1015.1 - 0.0 - - - - - - -
30/06:00am 23.9 ESE 10 13 1014.6 - 0.0 - - - - - - -
30/05:30am 23.8 ESE 11 13 1014.5 - 0.0 - - - - - - -
30/05:00am 23.9 ESE 11 14 1014.2 - 0.0 - - - - - - -
30/04:30am 24.0 ESE 12 14 1014.1 - 0.0 - - - - - - -
30/04:00am 23.8 SE 11 13 1013.9 - 0.0 - - - - - - -
30/03:30am 23.8 SE 11 13 1013.9 - 0.0 - - - - - - -
30/03:00am 23.7 SE 11 14 1013.7 - 0.0 - - - - - - -
30/02:30am 23.8 SE 12 15 1013.8 - 0.0 - - - - - - -
30/02:00am 23.8 SE 11 14 1014.1 - 0.0 - - - - - - -

Other Formats:

Comma delimited format used in spreadsheet applications
http://www.bom.gov.au/fwo/IDD60701/IDD60701.94147.axf

JavaScript Object Notation format (JSON) in row-major order
http://www.bom.gov.au/fwo/IDD60701/IDD60701.94147.json